Home   Weather   Dubrovnik   Past weeks

Flag for Croatia Past Weather in Dubrovnik, Croatia — Yesterday and Last 2 Weeks

Now
46 °F

Partly sunny.


Feels Like: 39 °F
Forecast: 35 / 41 °F
Wind: 18 mph from Southeast

Location: Dubrovnik / Cilipi

Current Time: Jan 16, 2017 at 12:16:29 pm

Latest Report: Jan 16, 2017 at 11:30 am


Visibility: N/A

Pressure: 29.74 "Hg

Humidity: 53%

Dew Point: 30 °F

Location of DubrovnikLocation

Past Weather in Dubrovnik — Graph

°F

Dubrovnik Temperature Yesterday

Maximum temperature yesterday: 48 °F (at 10:30 am)
Minimum temperature yesterday: 37 °F (at 12:00 am)
Average temperature yesterday: 42 °F

High & Low Weather Summary for the Past Weeks

 TemperatureHumidityPressure
High54 °F (Jan 1, 11:30 am)100% (Jan 3, 10:30 am)30.24 "Hg (Jan 3, 10:30 am)
Low19 °F (Jan 7, 8:30 am)16% (Jan 8, 12:30 pm)29.53 "Hg (Jan 13, 8:30 pm)
Average36 °F58%29.96 "Hg
* Reported Jan 1 11:00 am — Jan 16 11:00 am, Dubrovnik, Weather by CustomWeather, © 2017

Note: Actual official high and low records may vary slightly from our data, if they occured in-between our weather recording intervals... More about our weather records

Advertising

Dubrovnik Weather History for the Previous 24 Hours

Scroll right to see more
 ConditionsComfort  
Time TempWeatherWind HumidityBarometerVisibility
11:00 am
Mon, Jan 16
46 °FPartly sunny.13 mph53%29.74 "HgN/A
10:30 am45 °FPartly sunny.6 mph49%29.77 "HgN/A
10:00 am45 °FPartly sunny.6 mph46%29.77 "HgN/A
9:30 am43 °FPartly sunny.8 mph39%29.77 "HgN/A
9:00 am43 °FPartly sunny.9 mph36%29.77 "HgN/A
8:30 am43 °FScattered clouds.7 mph39%29.77 "HgN/A
8:00 am45 °FScattered clouds.13 mph34%29.77 "HgN/A
7:30 am45 °FSunny.15 mph37%29.77 "Hg10 mi
7:00 am45 °FPassing clouds.14 mph34%29.77 "HgN/A
6:30 am45 °FPassing clouds.10 mph34%29.77 "HgN/A
6:00 am43 °FPassing clouds.13 mph34%29.74 "HgN/A
5:30 am43 °FPassing clouds.14 mph34%29.74 "HgN/A
5:00 am43 °FPassing clouds.12 mph34%29.74 "HgN/A
4:30 am43 °FPassing clouds.16 mph31%29.77 "HgN/A
4:00 am43 °FClear.16 mph34%29.77 "Hg10 mi
3:30 am41 °FPassing clouds.18 mph36%29.77 "HgN/A
3:00 am41 °FPassing clouds.18 mph36%29.80 "HgN/A
2:30 am43 °FPassing clouds.16 mph34%29.80 "HgN/A
2:00 am43 °FPassing clouds.20 mph31%29.80 "HgN/A
1:00 am43 °FPassing clouds.22 mph34%29.80 "HgN/A
12:30 am41 °FPassing clouds.20 mph36%29.83 "HgN/A
12:00 am43 °FPassing clouds.21 mph34%29.83 "HgN/A
11:30 pm
Sun, Jan 15
43 °FPassing clouds.20 mph34%29.83 "HgN/A
11:00 pm43 °FPassing clouds.20 mph34%29.86 "HgN/A
10:30 pm43 °FPassing clouds.21 mph34%29.86 "HgN/A
10:00 pm43 °FPassing clouds.20 mph36%29.86 "HgN/A
9:30 pm41 °FClear.20 mph39%29.89 "Hg10 mi
9:00 pm43 °FPassing clouds.18 mph36%29.89 "HgN/A
8:30 pm41 °FPassing clouds.18 mph39%29.89 "HgN/A
8:00 pm41 °FClear.17 mph39%29.89 "Hg10 mi
7:30 pm41 °FPassing clouds.15 mph42%29.92 "HgN/A
7:00 pm41 °FClear.14 mph42%29.92 "Hg10 mi
6:30 pm41 °FPassing clouds.10 mph42%29.92 "HgN/A
6:00 pm41 °FPassing clouds.9 mph42%29.92 "HgN/A
5:30 pm43 °FClear.7 mph39%29.92 "Hg10 mi
5:00 pm43 °FClear.7 mph42%29.92 "Hg10 mi
4:30 pm43 °FSunny.9 mph42%29.92 "Hg10 mi
4:00 pm46 °FSunny.9 mph34%29.92 "Hg10 mi
3:30 pm46 °FPassing clouds.9 mph40%29.92 "HgN/A
3:00 pm46 °FPassing clouds.10 mph43%29.92 "HgN/A
2:30 pm46 °FPassing clouds.10 mph40%29.92 "HgN/A
2:00 pm48 °FPassing clouds.12 mph34%29.92 "HgN/A
1:30 pm48 °FPassing clouds.12 mph32%29.92 "HgN/A
1:00 pm48 °FPassing clouds.9 mph32%29.95 "HgN/A
12:30 pm48 °FPassing clouds.7 mph29%29.95 "HgN/A
12:00 pm48 °FPassing clouds.8 mph32%29.95 "HgN/A
Weather by CustomWeather, © 2017

See weather overviewHow to use our weather pages